Date,TemperatureHighF,TemperatureAvgF,TemperatureLowF,DewpointHighF,DewpointAvgF,DewpointLowF,HumidityHigh,HumidityAvg,HumidityLow,PressureMaxIn,PressureMinIn,WindSpeedMaxMPH,WindSpeedAvgMPH,GustSpeedMaxMPH,PrecipitationSumIn
2013-2-1,17,10,3,11,3,-2,80,74,65,30.45,30.14,14,4,19,0.00
2013-2-2,26,22,17,24,18,10,92,86,76,30.30,30.01,15,2,15,0.00
2013-2-3,23,17,10,20,13,7,90,84,78,30.12,29.99,16,2,16,0.00
2013-2-4,36,28,21,28,22,16,89,80,69,30.11,29.83,14,2,16,0.02
2013-2-5,35,28,19,31,24,17,95,86,71,30.06,29.84,13,2,15,0.00
2013-2-6,38,32,28,28,24,21,88,73,58,30.28,30.05,11,2,11,0.00
2013-2-7,51,40,31,41,33,27,95,78,56,30.20,29.80,14,3,14,0.05
2013-2-8,39,34,30,37,30,23,95,85,68,30.37,29.82,18,5,21,0.00
2013-2-9,38,30,19,28,24,18,96,79,65,30.43,30.19,14,2,14,0.00
2013-2-10,50,43,33,48,38,24,95,82,70,30.18,29.65,22,5,23,0.13
2013-2-11,50,41,31,48,34,26,92,77,67,30.02,29.64,24,5,24,0.00
2013-2-12,39,33,28,30,27,24,84,77,68,30.14,30.02,14,3,16,0.00
2013-2-13,46,34,24,31,27,22,93,77,54,29.96,29.77,3,1,10,0.00
2013-2-14,47,38,33,38,33,29,93,82,68,29.99,29.77,19,4,20,0.00
2013-2-15,33,30,20,30,25,16,92,83,57,30.18,29.98,13,2,13,0.00
2013-2-16,25,21,17,19,13,7,90,71,53,30.17,30.11,17,3,18,0.00
2013-2-17,31,21,10,15,11,6,87,67,43,30.28,30.16,10,1,10,0.00
2013-2-18,56,41,26,44,31,15,91,67,52,30.17,29.54,25,7,29,0.14
2013-2-19,45,24,18,43,19,12,93,82,72,30.15,29.52,27,6,27,0.05
2013-2-20,22,17,10,16,11,4,84,76,68,30.37,30.15,15,3,17,0.00
2013-2-21,27,25,20,22,19,16,91,80,74,30.39,30.05,11,2,16,0.00
2013-2-22,36,31,25,34,29,22,96,93,85,30.07,29.87,17,2,17,0.09
2013-2-23,32,28,23,26,23,21,92,82,71,30.00,29.94,9,2,12,0.00
2013-2-24,37,28,20,26,22,18,94,80,61,30.18,30.00,10,1,10,0.03
2013-2-25,44,33,23,31,26,21,94,78,58,30.20,29.94,15,2,16,0.02
2013-2-26,35,34,32,34,31,27,97,90,77,29.94,29.42,17,3,17,0.60
2013-2-27,35,33,31,34,32,29,98,95,91,29.67,29.47,14,3,14,0.04
2013-2-28,38,34,32,35,32,29,97,93,86,29.99,29.66,10,3,12,0.09